CPA939 VHHH-RPLL

Flight info

Callsign CPA939
Flight time 1h 32m
Altitude 33000
Route DALO1X/07R DALOL V642 NOMAN A461 AVMUP W16 TADEL TADE3R/06
Aircraft A359/H-SDE2E3GHIJ1J3J4J5LM1ORWXYZ/LB1D1

Departure

Time 2026-05-06 13:57
Airport Hong Kong International Airport (VHHH)

Arrival

Time 2026-05-06 15:29
Airport Ninoy Aquino International Airport (RPLL)
Time Latitude Longitude Altitude Speed Heading
2026-05-06 13:29 22.31223 113.91605 36 ft 0 kts 72°
2026-05-06 13:40 22.31222 113.91600 37 ft 1 kts 97°
2026-05-06 13:40 22.31224 113.91584 37 ft 2 kts 101°
2026-05-06 13:40 22.31227 113.91568 37 ft 2 kts 90°
2026-05-06 13:41 22.31225 113.91552 37 ft 2 kts 70°
2026-05-06 13:41 22.31220 113.91537 37 ft 2 kts 69°
2026-05-06 13:41 22.31215 113.91522 37 ft 2 kts 89°
2026-05-06 13:41 22.31218 113.91506 37 ft 2 kts 114°
2026-05-06 13:42 22.31226 113.91492 37 ft 2 kts 137°
2026-05-06 13:42 22.31238 113.91483 37 ft 1 kts 159°
2026-05-06 13:42 22.31242 113.91482 37 ft 0 kts 161°
2026-05-06 13:45 22.31238 113.91483 37 ft 2 kts 161°
2026-05-06 13:45 22.31127 113.91525 37 ft 12 kts 161°
2026-05-06 13:45 22.31035 113.91560 37 ft 15 kts 161°
2026-05-06 13:46 22.30941 113.91595 36 ft 17 kts 160°
2026-05-06 13:46 22.30833 113.91635 37 ft 14 kts 161°
2026-05-06 13:46 22.30730 113.91673 36 ft 17 kts 160°
2026-05-06 13:46 22.30620 113.91715 36 ft 16 kts 160°
2026-05-06 13:47 22.30532 113.91714 36 ft 13 kts 218°
2026-05-06 13:47 22.30482 113.91600 37 ft 20 kts 250°
2026-05-06 13:47 22.30428 113.91432 37 ft 25 kts 250°
2026-05-06 13:47 22.30367 113.91244 36 ft 27 kts 251°
2026-05-06 13:48 22.30306 113.91058 37 ft 26 kts 250°
2026-05-06 13:48 22.30251 113.90882 37 ft 22 kts 251°
2026-05-06 13:48 22.30203 113.90735 37 ft 0 kts 250°
2026-05-06 13:53 22.30199 113.90725 36 ft 4 kts 250°
2026-05-06 13:53 22.30180 113.90665 37 ft 11 kts 251°
2026-05-06 13:53 22.30147 113.90559 37 ft 17 kts 251°
2026-05-06 13:53 22.30102 113.90421 36 ft 20 kts 250°
2026-05-06 13:54 22.30054 113.90275 36 ft 21 kts 250°
2026-05-06 13:54 22.30003 113.90117 36 ft 22 kts 251°
2026-05-06 13:54 22.29950 113.89953 36 ft 21 kts 250°
2026-05-06 13:54 22.29908 113.89822 37 ft 18 kts 251°
2026-05-06 13:55 22.29858 113.89740 37 ft 10 kts 197°
2026-05-06 13:55 22.29779 113.89753 37 ft 13 kts 163°
2026-05-06 13:55 22.29690 113.89784 36 ft 12 kts 161°
2026-05-06 13:55 22.29633 113.89822 36 ft 4 kts 99°
2026-05-06 13:56 22.29646 113.89881 36 ft 9 kts 72°
2026-05-06 13:56 22.29676 113.89974 37 ft 16 kts 71°
2026-05-06 13:56 22.29775 113.90286 37 ft 79 kts 71°
2026-05-06 13:56 22.30023 113.91049 37 ft 140 kts 71°
2026-05-06 13:57 22.30388 113.92184 294 ft 169 kts 73°
2026-05-06 13:57 22.30743 113.93310 1179 ft 158 kts 72°
2026-05-06 13:57 22.31093 113.94401 1888 ft 156 kts 71°
2026-05-06 13:57 22.31459 113.95543 2258 ft 168 kts 71°
2026-05-06 13:58 22.31853 113.96773 2592 ft 184 kts 71°
2026-05-06 13:58 22.32292 113.98136 2983 ft 201 kts 70°
2026-05-06 13:58 22.32761 113.99593 3518 ft 212 kts 70°
2026-05-06 13:58 22.33242 114.01093 4217 ft 216 kts 70°
2026-05-06 13:59 22.33719 114.02639 4946 ft 220 kts 76°
2026-05-06 13:59 22.33826 114.04195 5626 ft 225 kts 95°
2026-05-06 13:59 22.33405 114.05833 6343 ft 232 kts 115°
2026-05-06 13:59 22.32448 114.07252 7056 ft 239 kts 136°
2026-05-06 14:00 22.31085 114.08272 7651 ft 251 kts 154°
2026-05-06 14:00 22.29378 114.08817 8158 ft 267 kts 174°
2026-05-06 14:00 22.27494 114.08989 8752 ft 278 kts 167°
2026-05-06 14:00 22.25755 114.09945 9204 ft 292 kts 134°
2026-05-06 14:01 22.24621 114.11755 9892 ft 297 kts 116°
2026-05-06 14:01 22.23700 114.13728 10586 ft 305 kts 116°
2026-05-06 14:01 22.22648 114.15790 11035 ft 321 kts 120°
2026-05-06 14:01 22.21431 114.17889 11451 ft 338 kts 123°
2026-05-06 14:02 22.20092 114.20010 11840 ft 355 kts 124°
2026-05-06 14:02 22.18606 114.22244 12209 ft 371 kts 126°
2026-05-06 14:02 22.17047 114.24521 12540 ft 388 kts 126°
2026-05-06 14:02 22.15404 114.26886 12857 ft 403 kts 126°
2026-05-06 14:03 22.13688 114.29337 13372 ft 412 kts 127°
2026-05-06 14:03 22.11971 114.31780 14042 ft 416 kts 127°
2026-05-06 14:03 22.10206 114.34286 14721 ft 419 kts 127°
2026-05-06 14:03 22.08454 114.36770 15353 ft 423 kts 127°
2026-05-06 14:04 22.06642 114.39336 15984 ft 427 kts 127°
2026-05-06 14:04 22.04856 114.41866 16591 ft 430 kts 127°
2026-05-06 14:04 22.03033 114.44445 17191 ft 434 kts 126°
2026-05-06 14:04 22.01219 114.47011 17767 ft 437 kts 126°
2026-05-06 14:05 21.99357 114.49643 18340 ft 441 kts 126°
2026-05-06 14:05 21.97512 114.52249 18891 ft 444 kts 126°
2026-05-06 14:05 21.95627 114.54911 19435 ft 447 kts 126°
2026-05-06 14:05 21.93728 114.57592 19968 ft 451 kts 126°
2026-05-06 14:06 21.91832 114.60266 20486 ft 454 kts 126°
2026-05-06 14:06 21.89926 114.62955 20993 ft 457 kts 126°
2026-05-06 14:06 21.87962 114.65708 21495 ft 460 kts 127°
2026-05-06 14:06 21.86007 114.68452 21984 ft 463 kts 127°
2026-05-06 14:07 21.84061 114.71189 22459 ft 466 kts 127°
2026-05-06 14:07 21.82095 114.73956 22923 ft 469 kts 127°
2026-05-06 14:07 21.80092 114.76773 23383 ft 472 kts 126°
2026-05-06 14:07 21.78095 114.79581 23824 ft 475 kts 126°
2026-05-06 14:08 21.76090 114.82398 24248 ft 477 kts 126°
2026-05-06 14:08 21.74066 114.85239 24661 ft 480 kts 126°
2026-05-06 14:08 21.72044 114.88077 25059 ft 482 kts 126°
2026-05-06 14:08 21.69995 114.90951 25442 ft 485 kts 126°
2026-05-06 14:09 21.67959 114.93807 25808 ft 487 kts 126°
2026-05-06 14:09 21.65864 114.96742 26170 ft 490 kts 126°
2026-05-06 14:09 21.63814 114.99612 26514 ft 492 kts 126°
2026-05-06 14:09 21.61714 115.02551 26861 ft 494 kts 126°
2026-05-06 14:10 21.59621 115.05479 27201 ft 495 kts 126°
2026-05-06 14:10 21.57542 115.08385 27531 ft 497 kts 126°
2026-05-06 14:10 21.55436 115.11328 27858 ft 498 kts 126°
2026-05-06 14:10 21.53323 115.14280 28179 ft 499 kts 126°
2026-05-06 14:11 21.51236 115.17205 28490 ft 500 kts 126°
2026-05-06 14:11 21.49125 115.20174 28798 ft 501 kts 126°
2026-05-06 14:11 21.47013 115.23147 29150 ft 501 kts 126°
2026-05-06 14:11 21.44900 115.26117 29583 ft 498 kts 126°
2026-05-06 14:12 21.42797 115.29072 30010 ft 496 kts 126°
2026-05-06 14:12 21.40710 115.32001 30406 ft 495 kts 126°
2026-05-06 14:12 21.38627 115.34924 30781 ft 493 kts 126°
2026-05-06 14:12 21.36551 115.37833 31143 ft 492 kts 126°
2026-05-06 14:13 21.34500 115.40707 31467 ft 492 kts 126°
2026-05-06 14:13 21.32412 115.43630 31739 ft 492 kts 126°
2026-05-06 14:13 21.30328 115.46548 31984 ft 493 kts 126°
2026-05-06 14:13 21.28235 115.49475 32223 ft 494 kts 126°
2026-05-06 14:14 21.26164 115.52371 32457 ft 495 kts 126°
2026-05-06 14:14 21.24092 115.55267 32687 ft 495 kts 126°
2026-05-06 14:14 21.21985 115.58209 32906 ft 496 kts 126°
2026-05-06 14:14 21.19894 115.61089 32956 ft 498 kts 129°
2026-05-06 14:15 21.14828 115.66051 32972 ft 500 kts 139°
2026-05-06 14:15 21.09461 115.70755 32972 ft 500 kts 139°
2026-05-06 14:16 21.04109 115.75472 32972 ft 501 kts 139°
2026-05-06 14:16 20.98742 115.80230 32972 ft 501 kts 139°
2026-05-06 14:17 20.93382 115.84988 32972 ft 502 kts 139°
2026-05-06 14:17 20.88050 115.89714 32973 ft 502 kts 140°
2026-05-06 14:18 20.82676 115.94451 32973 ft 502 kts 140°
2026-05-06 14:18 20.77289 115.99210 32973 ft 502 kts 139°
2026-05-06 14:19 20.72007 116.03882 32973 ft 502 kts 139°
2026-05-06 14:19 20.66618 116.08646 32973 ft 502 kts 139°
2026-05-06 14:20 20.61291 116.13354 32973 ft 502 kts 139°
2026-05-06 14:20 20.55929 116.18088 32973 ft 502 kts 139°
2026-05-06 14:21 20.50569 116.22817 32974 ft 502 kts 139°
2026-05-06 14:21 20.45197 116.27551 32977 ft 502 kts 139°
2026-05-06 14:22 20.39850 116.32259 32979 ft 502 kts 139°
2026-05-06 14:22 20.34471 116.36991 32980 ft 502 kts 139°
2026-05-06 14:23 20.29112 116.41702 32978 ft 502 kts 139°
2026-05-06 14:23 20.23739 116.46420 32977 ft 502 kts 139°
2026-05-06 14:24 20.18382 116.51122 32978 ft 502 kts 139°
2026-05-06 14:24 20.12999 116.55843 32982 ft 501 kts 139°
2026-05-06 14:25 20.07612 116.60566 32986 ft 501 kts 139°
2026-05-06 14:25 20.02266 116.65288 32991 ft 501 kts 138°
2026-05-06 14:26 19.97247 116.70389 32994 ft 500 kts 133°
2026-05-06 14:26 19.92535 116.75848 32995 ft 500 kts 131°
2026-05-06 14:27 19.87855 116.81288 32994 ft 500 kts 131°
2026-05-06 14:27 19.83143 116.86722 32994 ft 500 kts 131°
2026-05-06 14:28 19.78449 116.92139 32997 ft 499 kts 131°
2026-05-06 14:28 19.73798 116.97513 32996 ft 494 kts 131°
2026-05-06 14:29 19.69186 117.02844 32988 ft 489 kts 132°
2026-05-06 14:29 19.64647 117.08092 32971 ft 484 kts 132°
2026-05-06 14:30 19.60117 117.13323 32951 ft 481 kts 133°
2026-05-06 14:30 19.55590 117.18533 32935 ft 481 kts 133°
2026-05-06 14:31 19.51063 117.23740 32926 ft 481 kts 133°
2026-05-06 14:31 19.46554 117.28924 32921 ft 481 kts 133°
2026-05-06 14:32 19.42013 117.34144 32919 ft 481 kts 133°
2026-05-06 14:32 19.37496 117.39330 32918 ft 481 kts 133°
2026-05-06 14:33 19.32969 117.44525 32918 ft 481 kts 133°
2026-05-06 14:33 19.28411 117.49750 32918 ft 481 kts 133°
2026-05-06 14:34 19.23865 117.54958 32918 ft 481 kts 133°
2026-05-06 14:34 19.19365 117.60108 32918 ft 481 kts 133°
2026-05-06 14:35 19.14791 117.65340 32918 ft 481 kts 133°
2026-05-06 14:35 19.10256 117.70548 32918 ft 481 kts 133°
2026-05-06 14:36 19.05746 117.75710 32918 ft 481 kts 133°
2026-05-06 14:36 19.01185 117.80910 32917 ft 482 kts 133°
2026-05-06 14:37 18.96650 117.86077 32917 ft 484 kts 133°
2026-05-06 14:37 18.92068 117.91294 32917 ft 486 kts 133°
2026-05-06 14:38 18.87438 117.96549 32917 ft 489 kts 133°
2026-05-06 14:38 18.82799 118.01789 32918 ft 490 kts 133°
2026-05-06 14:39 18.78155 118.07046 32918 ft 490 kts 133°
2026-05-06 14:39 18.73531 118.12286 32918 ft 490 kts 132°
2026-05-06 14:40 18.68901 118.17533 32918 ft 490 kts 132°
2026-05-06 14:40 18.64270 118.22777 32918 ft 490 kts 132°
2026-05-06 14:41 18.59631 118.28025 32918 ft 490 kts 132°
2026-05-06 14:41 18.54999 118.33262 32918 ft 490 kts 132°
2026-05-06 14:42 18.50354 118.38509 32918 ft 490 kts 132°
2026-05-06 14:42 18.45707 118.43754 32918 ft 489 kts 132°
2026-05-06 14:43 18.41064 118.48989 32918 ft 490 kts 132°
2026-05-06 14:43 18.36416 118.54226 32918 ft 490 kts 132°
2026-05-06 14:44 18.31767 118.59460 32918 ft 490 kts 132°
2026-05-06 14:45 18.24857 118.67239 32918 ft 490 kts 133°
2026-05-06 14:45 18.20244 118.72450 32918 ft 490 kts 133°
2026-05-06 14:46 18.15594 118.77679 32918 ft 490 kts 133°
2026-05-06 14:46 18.10931 118.82906 32918 ft 489 kts 133°
2026-05-06 14:47 18.06289 118.88095 32918 ft 488 kts 133°
2026-05-06 14:47 18.01379 118.92979 32919 ft 487 kts 138°
2026-05-06 14:48 17.96061 118.97321 32919 ft 486 kts 143°
2026-05-06 14:48 17.90316 119.01121 32919 ft 487 kts 149°
2026-05-06 14:49 17.84435 119.04517 32919 ft 487 kts 149°
2026-05-06 14:49 17.78497 119.07935 32918 ft 487 kts 149°
2026-05-06 14:50 17.72594 119.11343 32918 ft 487 kts 149°
2026-05-06 14:50 17.66679 119.14762 32918 ft 487 kts 149°
2026-05-06 14:51 17.60765 119.18181 32918 ft 487 kts 149°
2026-05-06 14:51 17.54835 119.21606 32918 ft 487 kts 149°
2026-05-06 14:52 17.48928 119.25017 32918 ft 487 kts 149°
2026-05-06 14:52 17.43015 119.28427 32918 ft 487 kts 149°
2026-05-06 14:53 17.37112 119.31831 32918 ft 486 kts 149°
2026-05-06 14:53 17.31201 119.35237 32918 ft 486 kts 149°
2026-05-06 14:54 17.25271 119.38651 32918 ft 486 kts 149°
2026-05-06 14:54 17.19367 119.42048 32918 ft 486 kts 149°
2026-05-06 14:55 17.13448 119.45450 32918 ft 486 kts 149°
2026-05-06 14:55 17.07542 119.48843 32918 ft 486 kts 149°
2026-05-06 14:56 17.01627 119.52238 32917 ft 488 kts 149°
2026-05-06 14:56 16.95657 119.55662 32917 ft 490 kts 149°
2026-05-06 14:57 16.89725 119.59061 32918 ft 490 kts 149°
2026-05-06 14:57 16.83772 119.62452 32918 ft 491 kts 149°
2026-05-06 14:58 16.77880 119.65811 32919 ft 491 kts 149°
2026-05-06 14:58 16.71931 119.69238 32922 ft 491 kts 149°
2026-05-06 14:59 16.65989 119.72652 32933 ft 491 kts 149°
2026-05-06 14:59 16.60005 119.76075 32948 ft 491 kts 149°
2026-05-06 15:00 16.54030 119.79486 32959 ft 491 kts 149°
2026-05-06 15:00 16.48080 119.82880 32965 ft 491 kts 149°
2026-05-06 15:01 16.42266 119.86192 32968 ft 491 kts 149°
2026-05-06 15:01 16.36336 119.89569 32970 ft 491 kts 149°
2026-05-06 15:02 16.30454 119.92915 32971 ft 491 kts 149°
2026-05-06 15:02 16.27547 119.94569 32851 ft 491 kts 149°
2026-05-06 15:02 16.24564 119.96264 32599 ft 490 kts 149°
2026-05-06 15:02 16.21626 119.97933 32341 ft 488 kts 149°
2026-05-06 15:03 16.18700 119.99594 31894 ft 487 kts 149°
2026-05-06 15:03 16.15742 120.01273 31247 ft 486 kts 149°
2026-05-06 15:03 16.12831 120.02927 30483 ft 487 kts 149°
2026-05-06 15:03 16.09856 120.04615 29596 ft 490 kts 149°
2026-05-06 15:04 16.06916 120.06284 28702 ft 492 kts 149°
2026-05-06 15:04 16.03933 120.07976 28086 ft 488 kts 149°
2026-05-06 15:04 16.00993 120.09642 27437 ft 486 kts 149°
2026-05-06 15:04 15.98101 120.11282 26740 ft 484 kts 149°
2026-05-06 15:05 15.95172 120.12942 26040 ft 483 kts 149°
2026-05-06 15:05 15.92240 120.14603 25302 ft 482 kts 149°
2026-05-06 15:05 15.89362 120.16234 24617 ft 480 kts 149°
2026-05-06 15:05 15.86516 120.17838 23959 ft 477 kts 149°
2026-05-06 15:06 15.83616 120.19469 23354 ft 473 kts 149°
2026-05-06 15:06 15.80757 120.21081 22796 ft 468 kts 149°
2026-05-06 15:06 15.77945 120.22669 22266 ft 463 kts 149°
2026-05-06 15:06 15.75148 120.24251 21733 ft 459 kts 149°
2026-05-06 15:07 15.72388 120.25813 21211 ft 455 kts 149°
2026-05-06 15:07 15.69660 120.27355 20694 ft 451 kts 149°
2026-05-06 15:07 15.66909 120.28909 20176 ft 447 kts 150°
2026-05-06 15:07 15.64221 120.30426 19671 ft 443 kts 150°
2026-05-06 15:08 15.61517 120.31951 19166 ft 440 kts 150°
2026-05-06 15:08 15.58876 120.33442 18673 ft 437 kts 150°
2026-05-06 15:08 15.56251 120.34924 18185 ft 433 kts 150°
2026-05-06 15:08 15.53626 120.36404 17698 ft 430 kts 150°
2026-05-06 15:09 15.51031 120.37868 17218 ft 427 kts 150°
2026-05-06 15:09 15.48441 120.39327 16739 ft 425 kts 150°
2026-05-06 15:09 15.45910 120.40754 16264 ft 422 kts 150°
2026-05-06 15:09 15.43367 120.42136 15775 ft 420 kts 153°
2026-05-06 15:10 15.40760 120.43347 15302 ft 418 kts 158°
2026-05-06 15:10 15.38077 120.44369 14834 ft 415 kts 162°
2026-05-06 15:10 15.35331 120.45257 14390 ft 411 kts 163°
2026-05-06 15:10 15.32646 120.46096 13953 ft 408 kts 163°
2026-05-06 15:11 15.29942 120.46941 13503 ft 405 kts 163°
2026-05-06 15:11 15.27294 120.47773 13059 ft 402 kts 164°
2026-05-06 15:11 15.24639 120.48610 12610 ft 399 kts 164°
2026-05-06 15:11 15.22021 120.49439 12167 ft 396 kts 164°
2026-05-06 15:12 15.19408 120.50267 11722 ft 393 kts 164°
2026-05-06 15:12 15.16811 120.51090 11280 ft 390 kts 164°
2026-05-06 15:12 15.14276 120.51894 10932 ft 383 kts 164°
2026-05-06 15:12 15.11858 120.52662 10736 ft 372 kts 164°
2026-05-06 15:13 15.09402 120.53442 10609 ft 359 kts 164°
2026-05-06 15:13 15.07084 120.54179 10483 ft 347 kts 164°
2026-05-06 15:13 15.04872 120.54882 10370 ft 335 kts 164°
2026-05-06 15:13 15.02681 120.55577 10269 ft 324 kts 164°
2026-05-06 15:14 15.00570 120.56248 10186 ft 312 kts 164°
2026-05-06 15:14 14.98521 120.56897 9972 ft 306 kts 164°
2026-05-06 15:14 14.96494 120.57538 9650 ft 304 kts 164°
2026-05-06 15:14 14.94507 120.58166 9340 ft 302 kts 164°
2026-05-06 15:15 14.92512 120.58794 9203 ft 300 kts 164°
2026-05-06 15:15 14.90524 120.59421 9068 ft 300 kts 164°
2026-05-06 15:15 14.88555 120.60041 8931 ft 299 kts 164°
2026-05-06 15:15 14.86588 120.60658 8790 ft 298 kts 164°
2026-05-06 15:16 14.84659 120.61265 8591 ft 297 kts 164°
2026-05-06 15:16 14.82726 120.61874 8353 ft 296 kts 163°
2026-05-06 15:16 14.80764 120.62492 8093 ft 295 kts 163°
2026-05-06 15:16 14.78828 120.63103 7828 ft 293 kts 163°
2026-05-06 15:17 14.76879 120.63720 7559 ft 292 kts 163°
2026-05-06 15:17 14.74940 120.64333 7291 ft 291 kts 162°
2026-05-06 15:17 14.73034 120.64935 7028 ft 289 kts 162°
2026-05-06 15:17 14.71111 120.65550 6766 ft 288 kts 162°
2026-05-06 15:18 14.69205 120.66167 6508 ft 286 kts 162°
2026-05-06 15:18 14.67333 120.66768 6257 ft 284 kts 162°
2026-05-06 15:18 14.65456 120.67364 6111 ft 276 kts 162°
2026-05-06 15:18 14.63670 120.67929 6087 ft 264 kts 162°
2026-05-06 15:19 14.61931 120.68484 5983 ft 264 kts 162°
2026-05-06 15:19 14.60182 120.69045 5884 ft 264 kts 162°
2026-05-06 15:19 14.58417 120.69614 5782 ft 262 kts 162°
2026-05-06 15:19 14.56714 120.70156 5680 ft 254 kts 161°
2026-05-06 15:20 14.55058 120.70673 5582 ft 249 kts 162°
2026-05-06 15:20 14.53399 120.71187 5482 ft 250 kts 162°
2026-05-06 15:20 14.51743 120.71703 5359 ft 243 kts 162°
2026-05-06 15:20 14.50142 120.72199 5052 ft 243 kts 161°
2026-05-06 15:21 14.48521 120.72693 4597 ft 240 kts 162°
2026-05-06 15:21 14.46958 120.73165 4285 ft 231 kts 162°
2026-05-06 15:21 14.45410 120.73634 3934 ft 233 kts 162°
2026-05-06 15:21 14.43861 120.74105 3682 ft 231 kts 161°
2026-05-06 15:22 14.42334 120.74566 3459 ft 228 kts 162°
2026-05-06 15:22 14.40842 120.75058 3177 ft 227 kts 151°
2026-05-06 15:22 14.39693 120.76103 2900 ft 220 kts 118°
2026-05-06 15:22 14.39301 120.77580 2737 ft 207 kts 94°
2026-05-06 15:23 14.39275 120.79026 2531 ft 202 kts 88°
2026-05-06 15:23 14.39315 120.80504 2505 ft 204 kts 82°
2026-05-06 15:23 14.39709 120.81892 2484 ft 203 kts 66°
2026-05-06 15:23 14.40362 120.83166 2321 ft 194 kts 59°
2026-05-06 15:24 14.41046 120.84337 2231 ft 194 kts 59°
2026-05-06 15:24 14.41738 120.85523 2105 ft 191 kts 60°
2026-05-06 15:24 14.42384 120.86661 1961 ft 174 kts 61°
2026-05-06 15:24 14.42953 120.87681 1819 ft 158 kts 61°
2026-05-06 15:25 14.43482 120.88638 1708 ft 150 kts 61°
2026-05-06 15:25 14.44003 120.89580 1707 ft 152 kts 62°
2026-05-06 15:25 14.44531 120.90541 1704 ft 152 kts 60°
2026-05-06 15:25 14.45053 120.91481 1698 ft 152 kts 62°
2026-05-06 15:26 14.45583 120.92440 1698 ft 152 kts 61°
2026-05-06 15:26 14.46105 120.93385 1556 ft 152 kts 60°
2026-05-06 15:26 14.46628 120.94323 1360 ft 150 kts 62°
2026-05-06 15:26 14.47127 120.95225 1165 ft 144 kts 61°
2026-05-06 15:27 14.47622 120.96116 974 ft 143 kts 62°
2026-05-06 15:27 14.48114 120.97006 796 ft 143 kts 62°
2026-05-06 15:27 14.48605 120.97890 608 ft 142 kts 62°
2026-05-06 15:27 14.49093 120.98768 422 ft 141 kts 62°
2026-05-06 15:28 14.49580 120.99645 235 ft 141 kts 62°
2026-05-06 15:28 14.50061 121.00512 90 ft 132 kts 60°
2026-05-06 15:28 14.50445 121.01209 89 ft 87 kts 60°
2026-05-06 15:28 14.50698 121.01664 89 ft 69 kts 60°
2026-05-06 15:29 14.50923 121.02066 89 ft 62 kts 60°
2026-05-06 15:29 14.51118 121.02418 89 ft 42 kts 58°
2026-05-06 15:29 14.51234 121.02546 89 ft 15 kts 357°
2026-05-06 15:29 14.51290 121.02516 89 ft 3 kts 311°
2026-05-06 15:30 14.51298 121.02476 89 ft 8 kts 265°
2026-05-06 15:30 14.51273 121.02406 89 ft 13 kts 241°
2026-05-06 15:30 14.51223 121.02312 89 ft 16 kts 240°
2026-05-06 15:30 14.51157 121.02196 89 ft 21 kts 239°
2026-05-06 15:31 14.51088 121.02073 89 ft 11 kts 240°
2026-05-06 15:31 14.51074 121.02003 89 ft 10 kts 290°
2026-05-06 15:31 14.51129 121.01929 89 ft 15 kts 315°
2026-05-06 15:32 14.51263 121.01790 89 ft 13 kts 314°
2026-05-06 15:32 14.51340 121.01709 89 ft 16 kts 316°
2026-05-06 15:32 14.51427 121.01620 89 ft 17 kts 315°
2026-05-06 15:32 14.51506 121.01538 89 ft 15 kts 315°
2026-05-06 15:33 14.51551 121.01505 89 ft 3 kts
2026-05-06 15:33 14.51571 121.01521 89 ft 5 kts 42°
2026-05-06 15:33 14.51594 121.01543 89 ft 4 kts 43°
2026-05-06 15:33 14.51613 121.01562 89 ft 2 kts 44°
2026-05-06 15:34 14.51614 121.01562 89 ft 0 kts 44°